Location: Burkes Observatory
(44.7598°N, 69.4315°W)
Time: 17:08:05
(UTC-05:00)

Daily predictions for brighter satellites

Satellite Brightness Start Highest point End
(mag) Time Altitude Azimuth Time Altitude Azimuth Time Altitude Azimuth
Cosmos 2034 Rocket 4.1 16:45:45 10° N 16:52:09 86° E 16:58:32 10° S
IDEFIX/ARIANE 42P 2.6 16:50:07 10° SSE 16:55:19 82° ENE 17:00:36 10° NNW
Cosmos 2221 3.5 16:51:13 10° NNW 16:55:23 53° W 16:59:31 10° S
Cosmos 1300 4.1 16:55:11 10° NNE 16:57:59 19° ENE 17:00:46 10° ESE
Cosmos 841 Rocket 4.0 16:55:12 10° S 17:00:09 43° ESE 17:05:07 10° NNE
Cosmos 1726 3.5 16:57:39 10° NNE 17:00:31 20° ENE 17:03:22 10° ESE
MOS 1 4.3 16:55:14 10° SSE 17:00:52 79° ENE 17:06:34 10° NNW
Cosmos 371 Rocket 4.3 16:58:33 10° SSE 17:02:33 27° E 17:06:34 10° NE
CENTAUR R/B 2.6 16:56:59 10° SSW 17:02:59 67° ESE 17:09:48 10° NE
Lacrosse 5 rocket 2.4 17:01:11 10° NNW 17:04:17 24° NNE 17:07:30 10° E
Cosmos 468 Rocket 4.2 17:02:23 10° SSW 17:07:34 74° WNW 17:12:44 10° NNE
CZ-4 R/B 1.7 17:04:30 10° S 17:08:20 68° WSW 17:12:15 10° NNW
Cosmos 1937 Rocket 3.9 17:03:26 10° NNW 17:08:36 70° WSW 17:13:47 10° S
Cosmos 2322 4.1 17:03:02 10° SW 17:08:41 66° WNW 17:14:23 10° NNE
Meteor 2-2 Rocket 4.2 17:08:18 10° N 17:13:54 63° ENE 17:19:28 10° SSE
OTV 4 2.6 17:12:14 10° SW 17:14:36 21° S 17:16:57 10° SE
SL-16 R/B 4.1 17:10:57 10° WSW 17:15:34 25° NW 17:20:13 10° N
SMAP 3.4 17:11:09 10° S 17:15:47 74° WSW 17:20:28 10° NNW
Cosmos 1844 Rocket 2.7 17:10:19 10° NNW 17:16:02 83° ENE 17:21:41 10° SSE
Cosmos 1766 Rocket 3.9 17:11:51 10° SSW 17:16:18 72° W 17:20:45 10° N
Resurs 01 Rocket 3.4 17:16:49 11° E 17:18:24 13° ENE 17:20:19 10° NNE
Cosmos 2084 4.3 17:15:31 10° S 17:18:50 27° ESE 17:21:30 13° ENE
Lacrosse 5 3.1 17:16:11 10° W 17:20:46 33° NNW 17:25:22 10° NE
Cosmos 44 Rocket 4.0 17:16:32 10° S 17:21:17 39° ESE 17:25:41 12° NE
Cosmos 2333 4.2 17:17:37 10° SSW 17:23:12 76° ESE 17:28:48 10° NNE
Meteor 1-28 Rocket 4.2 17:20:35 10° NE 17:23:45 26° E 17:26:55 10° SSE
COSMO-SKYMED 1 3.0 17:20:05 10° NNE 17:24:14 42° E 17:28:21 10° S
CZ-2C R/B 3.3 17:20:35 10° S 17:25:29 54° W 17:30:17 10° NNW
Cosmos 1328 4.3 17:22:24 10° SSE 17:26:04 38° E 17:29:46 10° NNE
Cosmos 2279 Rocket 4.4 17:20:39 10° N 17:26:25 38° ENE 17:32:10 10° SE
YAOGAN 1 3.1 17:23:05 10° S 17:27:22 62° WSW 17:31:41 10° NNW
Cosmos 2228 Rocket 3.2 17:25:16 10° N 17:29:42 81° W 17:34:07 10° S
Aureole 2 Rocket 4.3 17:28:01 10° SE 17:30:18 16° E 17:30:43 15° E
Cosmos 2360 Rocket 3.4 17:26:28 10° SW 17:31:45 40° WNW 17:37:03 10° NNE
Cosmos 1980 4.2 17:27:36 10° S 17:32:50 39° ESE 17:37:51 11° NE
SJ-6B 3.6 17:35:22 10° SE 17:38:56 31° ENE 17:42:36 10° N
Cosmos 2346 Rocket 4.5 17:38:35 10° S 17:44:51 87° E 17:51:08 10° N
Cosmos 2333 Rocket 2.3 17:39:31 10° S 17:45:02 58° ESE 17:50:18 11° NNE
FENGYUN 3A 4.5 17:40:49 10° ESE 17:45:14 27° ENE 17:49:41 10° N
Cosmos 2058 3.4 17:41:31 10° SSE 17:45:19 37° E 17:48:36 13° NNE
Cosmos 1763 Rocket 3.9 17:42:55 10° SSW 17:48:06 63° WNW 17:53:14 10° NNE
DNEPR-1 R/B 4.4 17:45:02 10° SSW 17:51:55 68° ESE 17:56:19 18° NE
ATLAS 5 CENTAUR R/B 4.3 17:50:50 10° N 17:52:36 11° N 17:54:23 10° NNE
Meteor 2-10 4.0 17:47:54 10° N 17:52:54 56° ENE 17:57:59 10° SSE
Cosmos 1703 4.3 17:50:53 10° SSE 17:53:45 25° E 17:53:45 25° E
Cosmos 372 Rocket 3.9 17:49:07 10° NNW 17:54:11 62° ENE 17:59:14 10° SSE
METEOR-M 4.1 17:52:26 10° SSE 17:57:41 61° ENE 18:02:58 10° N
Meteor 1-27 4.2 17:52:42 10° N 17:58:30 67° ENE 18:04:18 10° SSE
Cosmos 2219 Rocket 2.2 17:53:01 10° SSW 17:58:40 87° WNW 18:04:15 10° NNE
Cosmos 1743 Rocket 4.5 17:54:50 10° SSW 17:59:12 51° WNW 18:03:35 10° N
Cosmos 2278 Rocket 2.1 17:56:38 10° NNW 18:02:21 86° ENE 18:08:02 10° SSE
USA 215 3.4 18:00:41 10° SE 18:07:15 79° SW 18:13:50 10° NW
Cosmos 1340 Rocket 2.9 18:04:46 10° S 18:08:35 49° E 18:09:41 37° NE
Cosmos 540 Rocket 3.4 18:03:34 10° SSW 18:08:43 74° ESE 18:12:48 17° NNE
Cosmos 2151 2.9 18:06:37 10° S 18:10:50 82° W 18:15:03 10° N
SKYMED 2 4.1 18:08:06 10° N 18:12:23 59° WNW 18:16:39 10° SSW
Cosmos 783 Rocket 4.5 18:08:02 10° S 18:13:16 63° ESE 18:16:37 23° NNE
Abrixas 4.5 18:14:23 10° SSW 18:15:50 19° S 18:15:50 19° S
SL-14 R/B 3.5 18:13:36 10° SSW 18:17:30 68° W 18:21:28 10° N
Cosmos 1805 Rocket 3.6 18:14:11 10° S 18:18:31 54° E 18:19:54 38° NE
Cosmos 1151 Rocket 4.0 18:15:14 10° NNW 18:19:21 48° W 18:23:27 10° SSW
Cosmos 1626 4.0 18:16:43 10° SSE 18:17:51 18° SSE 18:17:51 18° SSE
Timation 1 Rocket 4.3 18:15:19 10° NNW 18:21:20 69° ENE 18:27:08 11° SE
CZ-4C R/B 4.4 18:19:18 10° NNW 18:23:00 15° N 18:24:48 14° NNE
Cosmos 1125 Rocket 4.3 18:18:52 10° NNW 18:23:55 52° WSW 18:28:56 10° S
NOAA 12 4.3 18:19:53 10° S 18:25:06 74° WSW 18:30:23 10° NNW
COSMOS 2428 4.2 18:20:57 10° WSW 18:26:06 34° NW 18:31:17 10° N
Cosmos 2237 Rocket 2.2 18:23:39 10° SSW 18:29:17 82° WNW 18:33:01 22° NNE
ALOS 2.1 18:27:07 10° SSE 18:31:44 65° ENE 18:36:22 10° N
Cosmos 2369 Rocket 4.1 18:29:49 10° N 18:31:13 14° NNE 18:31:13 14° NNE
SL-16 R/B 2.3 18:28:29 10° S 18:33:54 49° ESE 18:34:22 48° E
Orbus 7S? 4.5 18:30:55 10° NW 18:34:50 51° NE 18:36:07 44° ENE
Cosmos 44 3.4 18:29:38 10° SW 18:34:54 82° NW 18:36:41 41° NNE
Spot 2 Rocket 3.3 18:30:35 10° SSE 18:35:35 67° ENE 18:40:36 10° N
Cosmos 1726 4.3 18:32:37 10° NNW 18:35:53 28° W 18:39:08 10° SSW
Cosmos 2297 3.6 18:35:36 10° NNW 18:41:21 85° ENE 18:44:55 24° SSE
Sich 1 4.0 18:38:14 10° S 18:40:52 35° SSE 18:40:52 35° SSE
Cosmos 1538 Rocket 4.3 18:37:53 10° S 18:42:16 48° SE 18:42:16 48° SE
Lacrosse 5 rocket 1.4 18:39:58 10° NW 18:43:38 67° WSW 18:43:38 67° WSW
NOSS 0 Rocket 4.4 18:38:12 10° SW 18:44:20 59° WNW 18:48:47 19° NNE
BREEZE-M DEB (TANK) 4.3 18:42:10 10° SW 18:43:03 21° SW 18:43:03 21° SW
SL-19 R/B 4.4 18:39:21 10° SSE 18:45:21 82° WSW 18:51:01 10° NNW
OTV 4 3.5 18:48:45 10° SW 18:49:25 12° SSW 18:49:25 12° SSW
CENTAUR R/B 3.9 18:48:29 10° W 18:54:13 34° NW 18:58:27 19° NNE
Resurs 01 Rocket 1.6 18:54:22 78° WNW 18:54:22 78° WNW 18:58:43 10° NNW
Lacrosse 4 Rocket 3.9 18:54:25 10° NNW 18:54:43 12° NNW 18:54:43 12° NNW
CZ-3A R/B 3.0 18:58:53 10° NW 19:03:30 67° SW 19:04:51 47° SSE
Cosmos 1707 Rocket 4.3 19:00:48 10° NNW 19:04:59 49° W 19:09:09 10° SSW
Lacrosse 5 3.7 19:01:18 10° NW 19:04:47 20° N 19:04:47 20° N
Aureole 2 Rocket 4.1 19:01:51 10° SW 19:04:39 36° W 19:04:39 36° W
Cosmos 2333 Rocket 4.1 19:25:04 10° WSW 19:29:42 25° NW 19:32:21 18° N
ATLAS 5 CENTAUR R/B 4.4 19:34:55 10° NNW 19:36:14 15° N 19:36:14 15° N
SL-16 R/B 4.2 20:13:22 10° WSW 20:16:19 24° W 20:16:19 24° W
